TimeEST,TemperatureF,Dew PointF,Humidity,Sea Level PressureIn,VisibilityMPH,Wind Direction,Wind SpeedMPH,Gust SpeedMPH,PrecipitationIn,Events,Conditions,WindDirDegrees,DateUTC
12:34 AM,12.7,10.4,90,30.11,5.0,Calm,Calm,-,N/A,,Clear,0,2012-12-28 05:34:00
12:54 AM,11.8,9.1,89,30.11,5.0,Calm,Calm,-,N/A,,Clear,0,2012-12-28 05:54:00
1:14 AM,10.8,7.9,88,30.11,4.0,Calm,Calm,-,N/A,,Scattered Clouds,0,2012-12-28 06:14:00
1:34 AM,11.7,9.0,89,30.11,7.0,Calm,Calm,-,N/A,,Mostly Cloudy,0,2012-12-28 06:34:00
1:54 AM,11.8,9.1,89,30.11,7.0,Calm,Calm,-,N/A,,Scattered Clouds,0,2012-12-28 06:54:00
2:14 AM,9.7,6.8,88,30.11,7.0,Calm,Calm,-,N/A,,Clear,0,2012-12-28 07:14:00
2:34 AM,9.7,6.6,87,30.12,10.0,Calm,Calm,-,N/A,,Clear,0,2012-12-28 07:34:00
2:54 AM,10.2,7.7,90,30.13,10.0,Calm,Calm,-,N/A,,Clear,0,2012-12-28 07:54:00
3:14 AM,10.4,7.5,88,30.14,7.0,Calm,Calm,-,N/A,,Clear,0,2012-12-28 08:14:00
3:34 AM,7.7,4.5,87,30.13,7.0,Calm,Calm,-,N/A,,Clear,0,2012-12-28 08:34:00
3:54 AM,8.2,5.2,87,30.13,10.0,Calm,Calm,-,N/A,,Clear,0,2012-12-28 08:54:00
4:14 AM,8.4,5.5,88,30.13,10.0,Calm,Calm,-,N/A,,Mostly Cloudy,0,2012-12-28 09:14:00
4:34 AM,8.2,5.2,87,30.12,10.0,Calm,Calm,-,N/A,,Overcast,0,2012-12-28 09:34:00
4:54 AM,9.0,5.9,87,30.11,7.0,Calm,Calm,-,N/A,,Mostly Cloudy,0,2012-12-28 09:54:00
5:14 AM,9.3,6.4,88,30.12,10.0,Calm,Calm,-,N/A,,Overcast,0,2012-12-28 10:14:00
5:34 AM,10.9,8.1,88,30.12,10.0,Calm,Calm,-,N/A,,Overcast,0,2012-12-28 10:34:00
5:54 AM,12.7,10.2,90,30.11,10.0,Calm,Calm,-,N/A,,Overcast,0,2012-12-28 10:54:00
6:15 AM,13.8,11.3,90,30.10,10.0,Calm,Calm,-,N/A,,Overcast,0,2012-12-28 11:15:00
6:34 AM,14.5,12.0,90,30.10,10.0,Calm,Calm,-,N/A,,Overcast,0,2012-12-28 11:34:00
6:54 AM,15.6,13.1,90,30.10,7.0,Calm,Calm,-,N/A,,Overcast,0,2012-12-28 11:54:00
7:34 AM,17.6,15.4,91,30.10,7.0,Calm,Calm,-,N/A,,Overcast,0,2012-12-28 12:34:00
7:54 AM,18.1,16.0,91,30.10,10.0,Calm,Calm,-,N/A,,Overcast,0,2012-12-28 12:54:00
8:15 AM,18.7,16.7,92,30.10,7.0,Calm,Calm,-,N/A,,Overcast,0,2012-12-28 13:15:00
8:34 AM,19.0,16.7,91,30.10,10.0,Calm,Calm,-,N/A,,Overcast,0,2012-12-28 13:34:00
8:54 AM,19.2,17.1,91,30.11,10.0,Calm,Calm,-,N/A,,Overcast,0,2012-12-28 13:54:00
9:15 AM,19.8,17.6,91,30.12,10.0,Calm,Calm,-,N/A,,Overcast,0,2012-12-28 14:15:00
9:34 AM,20.3,18.3,92,30.13,10.0,Calm,Calm,-,N/A,,Overcast,0,2012-12-28 14:34:00
9:54 AM,20.8,18.5,91,30.14,7.0,NNW,3.5,-,N/A,,Overcast,340,2012-12-28 14:54:00
10:15 AM,20.8,18.5,91,30.15,10.0,Calm,Calm,-,N/A,,Overcast,0,2012-12-28 15:15:00
10:34 AM,21.2,18.1,88,30.15,10.0,Calm,Calm,-,N/A,,Overcast,0,2012-12-28 15:34:00
10:54 AM,21.6,18.0,86,30.15,10.0,Calm,Calm,-,N/A,,Overcast,0,2012-12-28 15:54:00
11:14 AM,21.7,18.1,86,30.15,10.0,Calm,Calm,-,N/A,,Overcast,0,2012-12-28 16:14:00
11:34 AM,22.6,19.0,86,30.14,3.0,SSE,5.8,-,N/A,Snow,Light Snow,160,2012-12-28 16:34:00
11:55 AM,23.7,20.3,87,30.13,2.0,SSE,3.5,-,N/A,Snow,Light Snow,150,2012-12-28 16:55:00
12:14 PM,24.4,21.2,87,30.11,1.8,Calm,Calm,-,N/A,Snow,Light Snow,0,2012-12-28 17:14:00
12:34 PM,25.0,22.1,89,30.09,1.2,Calm,Calm,-,N/A,Snow,Light Snow,0,2012-12-28 17:34:00
1:14 PM,26.4,23.0,87,30.06,4.0,Calm,Calm,-,N/A,Snow,Light Snow,0,2012-12-28 18:14:00
1:34 PM,28.0,24.4,86,30.05,2.5,Calm,Calm,-,N/A,Snow,Light Snow,0,2012-12-28 18:34:00
1:55 PM,28.9,24.4,83,30.03,7.0,Calm,Calm,-,N/A,,Scattered Clouds,0,2012-12-28 18:55:00
2:14 PM,29.5,24.3,81,30.02,10.0,South,3.5,-,N/A,,Mostly Cloudy,190,2012-12-28 19:14:00
2:34 PM,29.7,24.6,81,30.02,10.0,SSE,5.8,-,N/A,,Overcast,160,2012-12-28 19:34:00
2:55 PM,29.3,24.6,83,30.02,7.0,SE,3.5,-,N/A,Snow,Light Snow,140,2012-12-28 19:55:00
3:14 PM,29.3,24.4,82,30.02,2.5,SSE,4.6,-,N/A,Snow,Light Snow,150,2012-12-28 20:14:00
3:35 PM,28.9,24.8,84,30.02,2.0,SSE,5.8,-,N/A,Snow,Light Snow,160,2012-12-28 20:35:00
3:55 PM,28.4,24.6,86,30.02,2.5,SSE,4.6,-,N/A,Snow,Light Snow,150,2012-12-28 20:55:00
4:14 PM,28.2,24.4,86,30.02,1.8,SSE,4.6,-,N/A,Snow,Light Snow,150,2012-12-28 21:14:00
4:35 PM,27.9,24.4,87,30.01,1.8,ESE,3.5,-,N/A,Snow,Light Snow,110,2012-12-28 21:35:00
4:54 PM,27.5,24.3,88,30.00,3.0,East,4.6,-,N/A,Snow,Light Snow,90,2012-12-28 21:54:00
5:35 PM,27.1,24.3,89,30.00,10.0,East,5.8,-,N/A,,Overcast,100,2012-12-28 22:35:00
5:55 PM,27.0,23.9,88,29.99,10.0,East,3.5,-,N/A,,Overcast,100,2012-12-28 22:55:00
6:14 PM,26.6,23.9,90,29.99,10.0,East,4.6,-,N/A,,Overcast,90,2012-12-28 23:14:00
6:54 PM,25.7,23.0,89,30.00,7.0,East,3.5,-,N/A,,Overcast,100,2012-12-28 23:54:00
7:14 PM,25.3,23.0,91,30.00,10.0,East,3.5,-,N/A,,Overcast,100,2012-12-29 00:14:00
7:35 PM,24.8,22.5,91,29.99,7.0,Calm,Calm,-,N/A,,Overcast,0,2012-12-29 00:35:00
7:54 PM,24.6,22.5,91,29.99,7.0,NE,3.5,-,N/A,,Overcast,40,2012-12-29 00:54:00
8:14 PM,25.2,23.0,91,29.99,7.0,ENE,3.5,-,N/A,,Overcast,60,2012-12-29 01:14:00
8:35 PM,25.2,23.0,91,29.98,7.0,Calm,Calm,-,N/A,,Overcast,0,2012-12-29 01:35:00
8:54 PM,25.2,23.0,91,29.97,7.0,NE,4.6,-,N/A,,Overcast,50,2012-12-29 01:54:00
9:14 PM,25.3,23.2,91,29.97,7.0,Calm,Calm,-,N/A,,Overcast,0,2012-12-29 02:14:00
9:35 PM,25.2,23.0,91,29.96,7.0,ENE,3.5,-,N/A,,Overcast,70,2012-12-29 02:35:00
9:54 PM,25.3,23.4,92,29.96,7.0,East,3.5,-,N/A,,Overcast,90,2012-12-29 02:54:00
10:14 PM,25.3,23.0,91,29.95,7.0,East,3.5,-,N/A,,Overcast,80,2012-12-29 03:14:00
10:35 PM,25.3,23.0,91,29.94,7.0,ENE,4.6,-,N/A,,Overcast,70,2012-12-29 03:35:00
10:54 PM,25.3,23.0,91,29.94,7.0,East,3.5,-,N/A,,Overcast,80,2012-12-29 03:54:00
11:15 PM,25.5,23.0,90,29.93,7.0,Calm,Calm,-,N/A,,Overcast,0,2012-12-29 04:15:00
11:35 PM,25.5,23.0,90,29.92,7.0,East,3.5,-,N/A,,Overcast,90,2012-12-29 04:35:00
11:54 PM,25.5,22.8,89,29.91,7.0,ENE,4.6,-,N/A,,Overcast,70,2012-12-29 04:54:00